TRITON-1

Last updated on Wed Sep 17 2025 00:03:48 GMT+0000 (Coordinated Universal Time)

1 39427U 13066M 25259.63302194 .00003776 00000+0 47395-3 0 9995 2 39427 97.8281 170.8901 0094959 45.5896 315.3039 14.79565915633605
UTC large
Height (km)
Speed (km/s)
/
Latitude / Longitude
Inclination (degrees)
Orbital Period (minutes)
Azimuth
Elevation
Range (km)
Doppler Factor

Next 0 passes for location: London (51.5072 / 0.1276)

Sorry there are no passes over London.